Probability
21 22 24 27 33 35 37 37 35 33 31 28 24 19 18 20 20 18 16 12 7 3 2 1 1 1 3 3 4 5 6 5 4 3 3 3 4 3 3 3 3 3 3
21 24 27 30 33 34 35 35 34 34 33 31 27 24 23 23 22 19 16 12 9 7 4 3 2 3 3 2 2 3 3 2 2 3 4 4 4 3 2 2 3 3 3
22 27 32 32 32 31 31 32 34 36 35 34 32 30 28 25 22 20 18 14 11 10 8 6 5 5 3 2 1 1 1 1 2 3 4 5 4 3 3 2 3 4 4
25 30 34 33 31 31 32 35 38 39 37 36 35 32 29 25 22 21 21 18 13 11 10 8 6 5 3 2 1 0 1 3 3 3 4 5 5 5 4 3 5 5 5
27 30 32 34 33 34 37 40 44 45 42 39 37 34 30 27 24 24 23 19 15 14 11 9 6 4 3 2 1 1 2 4 4 4 5 6 6 6 5 4 5 6 6
25 26 31 37 37 36 40 46 52 52 48 44 41 37 33 30 29 28 25 20 16 16 14 11 8 5 3 2 2 3 3 4 5 6 7 8 8 7 7 6 5 5 5
22 25 33 40 40 38 41 50 57 58 54 50 45 40 37 36 33 30 27 21 16 14 14 13 12 10 6 4 5 5 4 4 4 6 7 10 11 9 8 8 7 6 5
22 26 35 41 42 41 44 50 58 61 59 54 48 42 41 40 37 33 29 23 16 13 15 17 16 15 12 8 6 6 6 5 4 5 7 10 12 11 10 11 11 9 8
20 25 33 39 40 42 45 49 55 60 59 56 51 46 44 43 41 37 32 27 21 18 21 22 20 19 17 12 9 7 7 8 7 7 8 10 11 11 11 14 14 12 10
22 26 31 35 37 39 43 47 54 58 57 55 52 48 46 44 42 39 36 32 28 27 29 29 26 22 20 18 16 14 12 11 11 11 11 10 9 10 12 14 14 13 13
27 29 32 34 36 39 42 46 51 55 54 53 51 49 46 43 41 38 37 36 34 33 34 35 32 27 23 23 23 21 16 14 13 13 14 13 11 11 12 12 12 13 16
30 31 32 34 37 41 43 44 47 49 50 52 51 49 47 46 44 40 38 38 38 38 38 37 34 29 26 25 24 21 18 16 15 16 18 17 14 13 12 11 10 12 15
30 31 33 37 40 44 48 48 47 46 48 49 50 50 50 51 50 44 40 39 40 42 40 37 33 29 27 26 23 20 19 19 20 21 22 21 17 14 13 12 11 12 13
27 29 35 42 46 49 52 53 50 48 48 47 48 50 52 53 51 46 42 41 40 39 37 35 31 28 27 26 24 21 19 21 23 23 23 22 20 17 14 13 13 13 12
27 30 37 45 49 51 54 55 53 51 49 48 48 49 50 50 48 45 43 42 39 36 33 32 30 27 23 20 20 19 18 18 20 21 21 20 18 15 12 11 12 11 10
30 34 40 46 49 51 53 53 51 50 49 48 47 48 48 45 43 42 41 40 36 33 31 29 28 24 18 13 12 15 16 17 18 18 16 13 10 8 7 7 7 7 7
35 36 42 47 50 49 48 47 47 48 49 48 48 48 47 44 41 40 41 39 34 31 29 27 25 21 15 10 8 10 14 17 19 17 12 7 4 5 6 6 5 5 5
36 36 39 45 49 46 44 43 44 46 49 50 50 49 48 46 44 43 44 41 37 32 28 24 21 19 15 10 7 7 11 16 18 17 13 9 7 7 8 9 8 8 9
32 32 34 39 43 44 43 44 45 46 48 49 50 49 47 46 46 46 45 43 40 35 29 22 19 19 15 10 7 7 11 14 16 16 16 15 13 10 9 10 11 11 12
28 29 31 35 40 43 44 44 43 42 43 44 45 44 44 45 46 45 43 42 40 36 29 24 21 18 15 10 7 7 12 15 15 16 16 16 13 9 6 8 11 11 11
24 25 28 32 37 41 42 41 38 36 36 38 40 39 38 40 41 41 41 40 38 34 29 26 22 17 13 10 5 6 10 13 15 15 15 13 9 5 4 5 8 8 8
19 21 25 29 33 37 39 38 34 31 31 33 36 35 33 34 36 38 38 38 36 31 26 25 20 14 12 10 5 4 6 9 12 13 14 11 6 3 3 3 4 5 5
17 19 23 27 30 33 36 35 32 30 30 31 33 32 31 33 36 37 36 35 33 28 24 22 18 13 11 9 6 3 2 4 7 10 10 7 4 2 2 3 4 4 5
20 21 25 28 29 30 32 32 31 31 31 31 31 30 30 33 36 35 32 29 28 25 23 21 17 14 11 8 6 4 3 3 4 6 6 5 4 3 4 5 5 6 6
25 24 26 28 28 27 29 31 31 31 31 30 28 25 26 29 31 29 24 23 22 20 19 17 14 13 9 5 4 5 4 4 3 4 5 6 6 6 6 7 7 7 7
28 26 26 27 26 26 28 31 32 30 29 27 24 21 22 25 25 22 19 17 16 14 11 10 10 9 7 4 4 4 4 4 4 4 5 6 6 6 7 7 7 8 9
Wind_Speed
10 10 9 10 10 8 7 6 5 4 3 3 3 2 2 2 2 2 3 3 2 2 1 2 1 1 2 2 2 1 1 1 0 1 1 1 2 2 2 2 2 2 3
10 11 11 10 10 9 8 7 5 5 5 3 2 2 2 2 2 2 3 2 2 2 1 1 1 1 1 2 1 1 2 1 0 0 1 0 0 1 2 3 3 2 2
9 10 10 10 10 9 9 7 6 6 5 4 3 2 2 1 2 2 2 2 2 2 2 2 1 1 1 1 0 1 1 2 1 0 0 0 1 1 0 2 2 3 2
8 9 10 10 9 10 9 8 7 6 5 4 3 3 3 2 2 2 2 2 2 2 2 1 1 1 2 2 1 2 2 2 2 1 0 1 0 0 1 1 1 2 2
7 7 9 10 9 9 9 9 7 7 6 5 4 3 2 2 2 3 3 3 3 2 2 2 1 1 1 2 2 2 2 2 2 2 2 1 1 1 1 1 1 1 1
8 7 7 7 7 8 9 9 8 7 7 6 5 4 3 3 3 3 3 3 3 2 2 2 1 1 1 1 1 1 1 2 3 3 3 2 1 1 1 1 2 1 1
9 8 8 8 7 8 9 10 10 8 7 6 5 4 4 4 4 4 3 2 2 2 2 2 1 0 0 1 0 0 1 1 2 2 3 3 2 2 1 1 2 2 1
7 8 8 8 8 7 8 10 10 8 8 7 5 4 4 3 3 2 2 2 1 2 3 2 2 1 0 0 0 0 1 1 2 2 2 2 2 2 1 1 1 2 2
5 6 7 8 8 7 8 10 10 8 7 7 6 5 4 2 2 3 2 1 1 2 3 2 2 1 1 0 0 0 1 1 1 2 2 2 2 2 2 1 1 1 2
5 5 6 6 6 7 8 9 10 8 7 7 6 5 4 3 2 2 2 2 1 1 2 2 2 2 1 1 1 1 1 1 1 1 1 2 3 2 2 2 1 1 1
5 5 5 5 6 6 7 8 9 8 7 6 5 5 5 4 3 3 3 2 2 2 2 2 2 2 1 1 1 2 1 1 2 2 2 2 2 2 2 2 2 1 1
5 5 6 5 5 5 5 6 7 8 7 6 5 5 5 4 4 4 3 2 2 2 2 2 1 2 1 1 2 2 2 2 2 2 2 2 2 2 2 2 2 2 1
5 5 5 4 4 4 4 5 5 5 6 6 6 5 5 4 4 3 3 3 2 2 2 2 2 2 1 1 2 2 2 3 3 2 2 2 2 2 2 2 2 2 2
4 4 5 5 4 4 3 4 4 4 5 4 5 4 4 4 4 3 3 3 3 2 2 1 2 2 1 1 1 2 3 2 2 2 2 2 2 2 2 2 2 2 2
5 5 4 4 4 4 3 3 3 3 3 3 3 3 3 3 3 3 3 2 2 3 2 2 2 2 1 0 1 3 3 3 3 3 3 3 2 2 2 2 2 2 2
3 3 4 4 3 3 2 3 3 2 3 3 2 2 2 3 3 2 2 2 2 2 2 2 2 1 0 1 2 2 2 2 2 2 3 2 1 0 1 2 3 3 2
3 3 3 3 3 3 2 2 2 3 3 3 2 2 2 3 3 3 3 3 3 2 2 2 2 1 1 0 1 3 2 2 1 2 2 3 2 1 1 2 3 4 5
4 4 3 2 3 3 2 2 2 2 3 3 2 2 2 2 2 2 3 3 2 2 2 2 2 1 1 1 1 3 3 3 2 2 2 2 2 2 2 3 2 3 3
4 3 3 3 3 3 2 2 2 2 2 2 2 2 2 2 3 3 3 2 2 2 2 2 2 2 1 2 2 2 3 3 2 2 1 1 1 1 2 2 3 3 3
5 4 4 4 4 3 2 1 2 2 1 1 2 2 2 3 3 3 2 2 2 2 2 2 2 2 2 2 2 2 3 3 2 2 1 0 0 2 2 2 3 4 3
5 4 4 4 4 4 3 2 2 1 0 1 1 2 2 2 2 2 1 2 2 2 2 2 2 2 2 3 2 1 2 3 3 2 2 1 1 2 3 3 4 5 5
4 4 3 4 4 3 3 2 2 1 1 1 0 1 1 2 2 2 2 2 2 3 3 2 2 2 2 2 3 3 3 4 3 3 2 2 3 5 6 5 6 7 6
3 3 3 3 3 3 2 2 2 2 1 0 0 1 1 1 2 2 2 2 2 2 2 2 2 2 1 2 1 2 3 4 3 2 4 4 6 6 6 7 7 5 3
2 2 3 3 3 3 2 2 2 1 0 1 1 2 2 2 1 1 2 2 2 2 2 2 2 2 1 1 1 1 2 3 3 3 4 6 7 6 6 5 4 4 3
2 2 2 2 2 2 2 2 2 2 1 1 1 2 2 1 1 1 1 2 2 2 2 2 1 1 1 1 2 2 2 2 2 3 4 4 3 3 3 3 2 2 2
2 1 1 1 1 2 2 2 2 1 1 1 2 2 2 1 1 1 1 1 1 2 2 2 2 1 1 2 1 2 3 4 3 3 4 4 3 3 3 2 2 2 2
Wind_Direction
162 157 159 155 151 147 148 154 155 150 151 158 170 176 159 141 126 122 117 115 97 82 74 31 35 36 62 48 29 8 314 293 303 298 267 206 198 177 167 173 171 168 167
162 160 166 164 159 155 155 158 163 159 166 165 167 162 150 149 136 119 117 130 116 87 93 71 356 44 88 65 17 18 331 322 8 307 308 309 298 283 189 175 176 178 185
171 169 168 169 167 163 165 169 169 165 172 167 164 159 138 142 127 129 129 127 123 115 59 60 25 15 55 80 349 16 349 323 314 45 26 6 317 310 226 201 170 172 182
170 175 171 173 175 169 168 164 163 163 169 169 171 172 157 159 147 134 128 138 131 120 109 86 65 27 34 55 12 48 338 323 321 306 196 171 150 239 305 284 179 173 176
169 177 174 172 176 170 165 163 160 163 167 173 166 170 160 157 143 141 144 151 140 123 112 105 86 80 59 44 23 23 358 353 342 337 334 321 270 242 233 277 277 222 187
165 173 170 162 170 166 161 159 157 163 165 170 169 171 168 165 152 152 160 170 152 139 125 117 89 75 73 50 28 355 10 1 355 341 334 334 327 311 290 276 274 262 230
171 173 164 160 160 161 164 159 157 162 165 170 173 172 170 173 167 171 171 175 159 148 145 143 140 144 170 140 74 319 351 348 332 324 323 326 328 333 330 313 309 312 284
167 165 167 161 158 165 163 153 153 161 167 172 172 170 174 188 172 169 164 156 150 143 149 158 160 163 200 133 331 314 301 326 310 318 325 313 311 316 307 299 299 300 300
159 154 156 155 155 162 158 154 151 158 165 167 163 162 171 177 164 153 155 149 151 156 145 158 166 172 179 261 176 305 307 330 320 316 321 307 305 305 310 304 286 277 294
140 142 143 143 148 164 155 151 150 158 163 162 171 165 169 167 164 147 152 156 161 142 141 163 181 185 190 201 245 254 283 291 284 286 315 313 316 317 313 315 308 290 259
124 128 130 133 147 144 144 153 152 158 162 166 165 163 169 172 173 165 168 166 172 167 165 174 192 202 208 215 247 261 269 280 291 289 281 272 283 303 310 306 307 303 279
108 114 120 129 133 136 140 144 155 163 163 161 164 170 167 172 181 171 171 169 179 192 189 192 209 219 208 228 250 271 280 275 275 278 278 274 266 279 295 298 291 290 278
88 99 106 110 115 118 127 136 147 149 153 160 168 173 176 177 178 173 178 179 182 193 216 204 215 228 219 242 263 271 280 282 280 276 268 263 263 267 278 280 287 286 295
89 88 88 84 85 96 98 113 129 136 146 151 162 169 174 170 177 179 176 182 181 178 199 221 235 237 213 258 296 289 278 281 288 289 288 261 240 247 268 270 284 299 300
80 76 77 81 84 91 101 108 122 125 133 140 152 162 165 166 172 174 174 179 192 192 188 216 236 250 221 266 306 288 273 275 282 290 292 270 242 246 253 272 284 292 290
88 69 71 79 81 80 92 106 116 117 125 141 150 141 159 166 167 175 172 178 191 205 209 215 218 245 295 40 351 331 304 294 297 306 305 291 285 333 237 263 287 285 275
85 71 63 74 88 91 106 121 124 126 131 143 147 152 172 185 184 192 185 193 198 201 206 216 195 161 150 220 322 328 298 286 285 289 293 294 300 318 310 278 272 275 273
72 58 44 64 96 104 96 108 118 128 146 157 164 167 181 183 183 203 203 203 202 209 211 213 190 173 184 197 251 304 272 269 256 259 261 259 300 323 320 288 280 271 273
63 47 29 31 60 74 71 121 150 147 156 168 178 179 188 195 198 209 210 203 205 216 217 212 206 195 189 209 233 295 267 271 276 272 281 241 235 322 319 291 287 287 282
59 42 32 41 63 61 64 72 146 147 163 181 193 194 193 205 209 212 202 203 213 225 229 219 210 205 199 201 215 272 272 275 279 276 254 23 68 274 282 281 285 281 286
58 53 42 42 58 54 50 51 68 94 157 220 210 206 191 201 207 198 196 204 219 224 228 225 221 217 193 182 198 203 281 290 283 276 260 241 238 265 256 254 259 264 275
49 52 50 44 53 54 50 43 35 24 38 49 252 213 200 224 212 193 206 207 214 221 216 213 227 227 191 177 194 212 244 281 287 285 287 278 265 263 258 250 256 265 272
44 40 47 49 49 49 46 25 14 20 37 21 314 262 234 235 220 210 218 211 207 225 219 220 230 230 200 167 170 235 255 274 274 285 294 292 276 265 253 242 249 258 263
44 41 45 44 35 28 25 10 7 12 14 301 269 247 229 241 213 213 219 215 218 225 225 233 249 251 225 205 218 249 256 270 274 282 287 281 269 263 258 245 236 236 243
46 40 48 47 33 25 20 9 20 10 349 301 278 269 250 228 212 229 256 239 219 224 225 233 244 261 260 274 252 247 260 259 262 277 273 268 269 259 256 255 240 235 241
54 40 26 8 0 356 360 15 14 358 312 284 283 281 273 232 235 232 252 1 255 196 194 206 223 225 194 199 230 244 259 268 264 253 261 267 275 280 274 262 255 240 236